Погода в Дроэде

Ирландия     53°43′05″N   6°21′22″W
темп.,
°C
ветер,
м/с
пор.,
м/с
влажн.,
%
обл.,
%
осадки,
мм/ч
давл.,
гПа
погр.,
м
7 марта, вс
вс700:00+2зюз33836 0.0 103193
03:00+2зюз458472 0.0 1029139
06:00+1з448636 0.0 1029141
09:00+3з45820 0.0 1028174
12:00+7зюз34676 0.0 1028484
15:00+9юз23708 0.0 1026293
18:00+7юз237832 0.0 102523
21:00+5зюз348685 0.0 1026108
8 марта, пн
пн800:00+6зюз489292 0.3 1025267
03:00+5зюз5893100 0.1 1024231
06:00+4зюз699399 0.1 1024248
09:00+5зюз588995 0.0 1024289
12:00+8юз577997 0.0 1023435
15:00+9юз467499 0.0 1021384
18:00+8юз348195 0.0 102074
21:00+7юз5888100 0.0 1021254
9 марта, вт
вт900:00+6юз6109299 0.2 1020329
03:00+6юз61091100 0.0 1018334
06:00+6юз4793100 0.0 1017232
09:00+7ююз5992100 0.0 1016380
12:00+9ююз71184100 0.1 1014485
15:00+9ю81482100 0.3 1009571
18:00+8ю91788100 1.0 1006869
21:00+8ю101889100 2.1 1002736
10 марта, ср
ср1000:00+9ююз91790100 3.2 1001549
03:00+7з4791100 0.4 1001201
06:00+7юз4790100 0.6 1001331
09:00+7ююз4991100 0.8 998481
12:00+8ю71493100 6.0 993423
15:00+12юз102187100 0.3 988735
18:00+10зюз112082100 0.8 985997
21:00+8юз132480100 0.2 9831555
11 марта, чт
чт1100:00+8юз16287697 0.5 9791442
03:00+8з121984100 2.1 9831190
06:00+5з12188686 2.3 9891183
09:00+6зюз12177885 0.0 9921474
12:00+7зюз13196790 0.4 9931878
15:00+7з131968100 0.9 9941816
18:00+6з11196996 1.3 9971770
21:00+5зюз1218700 0.0 10001228